This demonstration page uses our WeatherBlox Daily Observations layout. Learn more.

Left ArrowRight Arrow

39.29038, -76.61219

Hourly Observations for April 4, 2022

Temp ( °F °C ) Dew Point ( °F °C ) Humidity (%) Winds ( mph kmh ) Pressure ( in mb ) Visibility ( mi km ) Precip ( " mm )
12:54 am 00:54 Mostly Clear 43 6.1 24 -4.4 47 47 NW 12 19 30.01 1016 10 16 0.00 0.00
4:54 am 04:54 Clear 37 2.8 24 -4.4 59 59 WNW 6 9 30.04 1017 10 16 0.00 0.00
5:54 am 05:54 Clear 35 1.7 24 -4.4 64 64 WNW 6 9 30.06 1018 10 16 0.00 0.00
6:54 am 06:54 Mostly Sunny 36 2.2 25 -3.9 64 64 WNW 5 7 30.07 1018 10 16 0.00 0.00
7:54 am 07:54 Mostly Sunny 41 5 26 -3.3 55 55 W 6 9 30.09 1019 10 16 0.00 0.00
8:54 am 08:54 Mostly Sunny 45 7.2 27 -2.8 49 49 WNW 9 15 30.07 1018 10 16 0.00 0.00
9:54 am 09:54 Mostly Sunny 48 8.9 26 -3.3 42 42 NNW 7 11 30.09 1019 10 16 0.00 0.00
10:54 am 10:54 Partly Cloudy 50 10 27 -2.8 41 41 undefined N/A 30.09 1019 10 16 0.00 0.00
11:54 am 11:54 Mostly Cloudy 51 10.6 26 -3.3 38 38 WNW 6 9 30.07 1018 10 16 0.00 0.00
12:54 pm 12:54 Mostly Cloudy 53 11.7 26 -3.3 35 35 WNW 13 20 30.06 1018 10 16 0.00 0.00
1:54 pm 13:54 Cloudy 54 12.2 26 -3.3 34 34 NW 8 13 30.05 1018 10 16 0.00 0.00
2:54 pm 14:54 Cloudy 54 12.2 26 -3.3 34 34 WSW 9 15 30.02 1017 10 16 0.00 0.00
3:54 pm 15:54 Mostly Cloudy 55 12.8 25 -3.9 31 31 SW 8 13 30.01 1016 10 16 0.00 0.00
4:54 pm 16:54 Cloudy 54 12.2 25 -3.9 33 33 WNW 10 17 30.01 1016 10 16 0.00 0.00
5:54 pm 17:54 Cloudy 54 12.2 25 -3.9 33 33 Calm 30.00 1016 10 16 0.00 0.00
6:54 pm 18:54 Cloudy 54 12.2 26 -3.3 34 34 Calm 30.00 1016 10 16 0.00 0.00
7:54 pm 19:54 Mostly Cloudy 51 10.6 30 -1.1 44 44 SSE 6 9 30.00 1016 10 16 0.00 0.00
8:54 pm 20:54 Mostly Cloudy 50 10 32 0 50 50 E 5 7 30.01 1016 10 16 0.00 0.00
9:54 pm 21:54 Cloudy 49 9.4 32 0 52 52 Calm 30.02 1017 10 16 0.00 0.00
10:54 pm 22:54 Cloudy 48 8.9 34 1.1 58 58 E 3 6 30.02 1017 10 16 0.00 0.00
11:54 pm 23:54 Cloudy 49 9.4 36 2.2 61 61 ESE 3 6 30.02 1017 10 16 0.00 0.00

Powered by AerisWeather